Home > Weather > Kunduz > Past weeks

Flag for Afghanistan Past Weather in Kunduz, Afghanistan — Yesterday and Last 2 Weeks

Now
90 °F

Sunny.


Feels Like: 86 °F
Forecast: 68 / 96 °F
Wind: 6 mph from Northwest

Location: Termez Airport

Current Time: Aug 26, 2016 at 6:32:39 PM

Latest Report: Aug 26, 2016 at 5:30 PM


Visibility: 10 mi

Pressure: 29.80 "Hg

Humidity: 16%

Dew Point: 37 °F

Location of KunduzLocation

Past Weather in Kunduz — Graph

°F

Kunduz Temperature Yesterday

Maximum temperature yesterday: 95 °F (at 2:30 PM)
Minimum temperature yesterday: 64 °F (at 4:00 AM)
Average temperature yesterday: 81 °F

High & Low Weather Summary for the Past Weeks

 TemperatureHumidityPressure
High104 °F (Aug 12, 1:00 PM)73% (Aug 21, 5:30 AM)29.95 "Hg (Aug 21, 5:30 AM)
Low63 °F (Aug 17, 5:30 AM)8% (Aug 14, 1:30 PM)29.56 "Hg (Aug 11, 4:30 PM)
Average83 °F26%29.73 "Hg
* Reported Aug 11 4:30 PM — Aug 26 5:00 PM, Kunduz, Weather by CustomWeather, © 2016

Note: Actual official high and low records may vary slightly from our data, if they occured in-between our weather recording intervals... More about our weather records

Advertising

Kunduz Weather History for the Previous 24 Hours

Scroll right to see more
 ConditionsComfort  
Time TempWeatherWind HumidityBarometerVisibility
5:00 PM
Fri, Aug 26
91 °FPassing clouds.6 mph16%29.80 "HgN/A
4:30 PM93 °FSunny.8 mph14%29.80 "Hg10 mi
4:00 PM93 °FSunny.7 mph14%29.83 "Hg10 mi
3:30 PM93 °FSunny.7 mph15%29.83 "Hg10 mi
3:00 PM93 °FPassing clouds.7 mph17%29.83 "HgN/A
2:30 PM93 °FPassing clouds.8 mph17%29.86 "HgN/A
2:00 PM91 °FPassing clouds.8 mph14%29.86 "HgN/A
1:30 PM91 °FPassing clouds.7 mph16%29.89 "HgN/A
1:00 PM91 °FPassing clouds.6 mph14%29.89 "HgN/A
12:30 PM91 °FPassing clouds.5 mph16%29.89 "HgN/A
12:00 PM90 °FPassing clouds.6 mph16%29.92 "HgN/A
11:30 AM88 °FSunny.7 mph18%29.92 "Hg10 mi
11:00 AM86 °FPassing clouds.6 mph20%29.95 "HgN/A
10:30 AM86 °FPassing clouds.6 mph20%29.95 "HgN/A
10:00 AM82 °FPassing clouds.6 mph23%29.95 "HgN/A
9:30 AM81 °FPassing clouds.3 mph24%29.95 "HgN/A
9:00 AM77 °FSunny.6 mph32%29.95 "Hg10 mi
8:30 AM75 °FPassing clouds.3 mph39%29.95 "HgN/A
8:00 AM72 °FPassing clouds.3 mph47%29.95 "HgN/A
7:30 AM70 °FPassing clouds.3 mph46%29.92 "HgN/A
7:00 AM68 °FSunny.5 mph35%29.92 "Hg10 mi
6:30 AM68 °FSunny.5 mph33%29.92 "Hg10 mi
6:00 AM66 °FSunny.6 mph32%29.92 "Hg10 mi
5:30 AM64 °FSunny.6 mph34%29.89 "Hg10 mi
5:00 AM68 °FClear.3 mph28%29.89 "Hg10 mi
4:30 AM68 °FClear.No wind28%29.89 "Hg10 mi
3:30 AM68 °FClear.1 mph33%29.86 "Hg10 mi
3:00 AM68 °FClear.1 mph40%29.86 "Hg10 mi
2:30 AM68 °FClear.1 mph40%29.86 "Hg10 mi
2:00 AM68 °FClear.2 mph38%29.86 "Hg10 mi
1:30 AM70 °FClear.2 mph33%29.86 "Hg10 mi
1:00 AM70 °FPassing clouds.3 mph43%29.86 "HgN/A
12:30 AM75 °FClear.2 mph22%29.86 "Hg10 mi
12:00 AM75 °FClear.2 mph22%29.86 "Hg10 mi
11:30 PM
Thu, Aug 25
77 °FClear.5 mph19%29.86 "Hg10 mi
11:00 PM75 °FClear.7 mph22%29.86 "Hg10 mi
10:30 PM75 °FClear.7 mph24%29.86 "Hg10 mi
10:00 PM75 °FClear.8 mph24%29.86 "Hg10 mi
9:30 PM77 °FClear.8 mph22%29.86 "Hg10 mi
9:00 PM79 °FClear.8 mph20%29.86 "Hg10 mi
8:30 PM77 °FClear.7 mph28%29.86 "Hg10 mi
8:00 PM81 °FClear.7 mph24%29.83 "Hg10 mi
7:30 PM82 °FClear.5 mph25%29.83 "Hg10 mi
7:00 PM86 °FClear.2 mph22%29.83 "Hg10 mi
6:30 PM88 °FSunny.2 mph21%29.83 "Hg10 mi
6:00 PM88 °FSunny.5 mph19%29.83 "Hg10 mi
Weather by CustomWeather, © 2016

See weather overviewHow to use our weather pages